| time (UTC) | temp F | wind direction | speed knots | gust knots | rain 1hr in | rain 24hr in | rain mn in | humidity % | barometer mb |
| 20260506040031 | 71 | 85 | 0.9 | 2.6 | 0.00 | 0.00 | 0.00 | 54 | 1009.7 |
| 20260506034559 | 71 | 0 | 0.0 | 0.0 | 0.00 | 0.00 | 0.00 | 57 | 1009.6 |
| 20260506033032 | 71 | 0 | 0.0 | 0.0 | 0.00 | 0.00 | 0.00 | 57 | 1009.5 |
| 20260506031531 | 72 | 0 | 0.0 | 0.0 | 0.00 | 0.00 | 0.00 | 57 | 1009.5 |
| 20260506030030 | 73 | 0 | 0.0 | 1.7 | 0.00 | 0.00 | 0.00 | 57 | 1009.4 |
| 20260506024533 | 74 | 0 | 0.9 | 2.6 | 0.00 | 0.00 | 0.00 | 56 | 1009.4 |
| 20260506023035 | 76 | 85 | 1.7 | 5.2 | 0.00 | 0.00 | 0.00 | 54 | 1009.2 |
| 20260506021533 | 77 | 76 | 0.9 | 2.6 | 0.00 | 0.00 | 0.00 | 49 | 1009.4 |
| 20260506020031 | 81 | 76 | 1.7 | 4.3 | 0.00 | 0.00 | 0.00 | 44 | 1009.2 |
| 20260506014533 | 83 | 58 | 0.9 | 1.7 | 0.00 | 0.00 | 0.00 | 33 | 1009.2 |
| 20260506013038 | 84 | 0 | 0.0 | 3.5 | 0.00 | 0.00 | 0.00 | 32 | 1009.2 |
| 20260506011532 | 84 | 0 | 0.0 | 2.6 | 0.00 | 0.00 | 0.00 | 29 | 1009.2 |
| 20260506010032 | 83 | 60 | 0.0 | 3.5 | 0.00 | 0.00 | 0.00 | 29 | 1009.2 |
| 20260506004556 | 83 | 57 | 0.9 | 5.2 | 0.00 | 0.00 | 0.00 | 29 | 1009.4 |
| 20260506003045 | 83 | 49 | 2.6 | 6.1 | 0.00 | 0.00 | 0.00 | 31 | 1009.3 |
| 20260506001539 | 83 | 350 | 4.3 | 7.8 | 0.00 | 0.00 | 0.00 | 31 | 1009.4 |
| 20260506000032 | 84 | 51 | 2.6 | 6.1 | 0.00 | 0.00 | 0.00 | 31 | 1009.7 |
| 20260505234555 | 83 | 5 | 2.6 | 7.0 | 0.00 | 0.00 | 0.00 | 31 | 1009.8 |
| 20260505233037 | 83 | 345 | 4.3 | 10.4 | 0.00 | 0.00 | 0.00 | 30 | 1009.9 |
| 20260505231534 | 83 | 298 | 2.6 | 7.8 | 0.00 | 0.00 | 0.00 | 32 | 1010.0 |
| 20260505230040 | 82 | 0 | 1.7 | 8.7 | 0.00 | 0.00 | 0.00 | 32 | 1010.1 |
| 20260505224539 | 83 | 352 | 2.6 | 9.6 | 0.00 | 0.00 | 0.00 | 34 | 1010.1 |
| 20260505223035 | 82 | 28 | 2.6 | 7.0 | 0.00 | 0.00 | 0.00 | 35 | 1010.4 |
| 20260505221532 | 82 | 47 | 2.6 | 8.7 | 0.00 | 0.00 | 0.00 | 37 | 1010.4 |
| 20260505220046 | 81 | 311 | 4.3 | 7.8 | 0.00 | 0.00 | 0.00 | 37 | 1010.6 |
| 20260505214538 | 81 | 44 | 5.2 | 8.7 | 0.00 | 0.00 | 0.00 | 37 | 1010.8 |
| 20260505213036 | 81 | 44 | 2.6 | 7.8 | 0.00 | 0.00 | 0.00 | 40 | 1010.8 |
| 20260505211545 | 80 | 42 | 2.6 | 9.6 | 0.00 | 0.00 | 0.00 | 43 | 1010.9 |
| 20260505210031 | 80 | 332 | 3.5 | 9.6 | 0.00 | 0.00 | 0.00 | 43 | 1011.0 |
| 20260505204535 | 79 | 34 | 4.3 | 7.8 | 0.00 | 0.00 | 0.00 | 44 | 1011.1 |
| 20260505203037 | 79 | 307 | 4.3 | 8.7 | 0.00 | 0.00 | 0.00 | 44 | 1011.2 |
| 20260505201537 | 78 | 326 | 6.1 | 9.6 | 0.00 | 0.00 | 0.00 | 45 | 1011.2 |
| 20260505200035 | 77 | 309 | 6.1 | 11.3 | 0.00 | 0.00 | 0.00 | 46 | 1011.4 |
| 20260505194536 | 77 | 299 | 3.5 | 8.7 | 0.00 | 0.00 | 0.00 | 50 | 1011.3 |
| 20260505193041 | 76 | 330 | 3.5 | 9.6 | 0.00 | 0.00 | 0.00 | 51 | 1011.4 |
| 20260505191544 | 75 | 284 | 4.3 | 8.7 | 0.00 | 0.00 | 0.00 | 54 | 1011.5 |
| 20260505190035 | 74 | 288 | 4.3 | 8.7 | 0.00 | 0.00 | 0.00 | 54 | 1011.6 |
| 20260505184535 | 73 | 322 | 4.3 | 8.7 | 0.00 | 0.00 | 0.00 | 55 | 1011.7 |
| 20260505183032 | 73 | 302 | 5.2 | 8.7 | 0.00 | 0.00 | 0.00 | 56 | 1011.7 |
| 20260505181534 | 72 | 309 | 3.5 | 7.8 | 0.00 | 0.00 | 0.00 | 57 | 1011.7 |
| 20260505180044 | 71 | 318 | 4.3 | 8.7 | 0.00 | 0.00 | 0.00 | 58 | 1011.7 |
| 20260505174539 | 70 | 329 | 4.3 | 8.7 | 0.00 | 0.00 | 0.00 | 61 | 1011.7 |
| 20260505173036 | 69 | 313 | 4.3 | 7.0 | 0.00 | 0.00 | 0.00 | 59 | 1011.7 |
| 20260505171535 | 68 | 331 | 4.3 | 12.2 | 0.00 | 0.00 | 0.00 | 61 | 1011.6 |
| 20260505170035 | 67 | 345 | 3.5 | 7.0 | 0.00 | 0.00 | 0.00 | 63 | 1011.6 |
| 20260505164532 | 66 | 346 | 1.7 | 7.0 | 0.00 | 0.00 | 0.00 | 64 | 1011.6 |
| 20260505163040 | 66 | 346 | 2.6 | 5.2 | 0.00 | 0.00 | 0.00 | 65 | 1011.5 |
| 20260505161535 | 65 | 346 | 2.6 | 7.0 | 0.00 | 0.00 | 0.00 | 64 | 1011.4 |
| 20260505153046 | 62 | 346 | 2.6 | 7.0 | 0.00 | 0.00 | 0.00 | 66 | 1011.1 |
| 20260505151539 | 61 | 346 | 2.6 | 7.0 | 0.00 | 0.00 | 0.00 | 66 | 1011.0 |
| 20260505124535 | 54 | 332 | 3.5 | 7.0 | 0.00 | 0.00 | 0.00 | 74 | 1009.2 |
| 20260505123051 | 54 | 332 | 2.6 | 7.0 | 0.00 | 0.00 | 0.00 | 74 | 1009.0 |
| 20260505121530 | 54 | 328 | 3.5 | 8.7 | 0.00 | 0.00 | 0.00 | 75 | 1008.9 |
| 20260505120035 | 54 | 313 | 3.5 | 7.0 | 0.00 | 0.00 | 0.00 | 75 | 1008.8 |
| 20260505114543 | 54 | 311 | 2.6 | 5.2 | 0.00 | 0.00 | 0.00 | 74 | 1008.6 |
| 20260505113037 | 54 | 311 | 2.6 | 7.0 | 0.00 | 0.00 | 0.00 | 75 | 1008.4 |
| 20260505111551 | 55 | 306 | 3.5 | 7.0 | 0.00 | 0.00 | 0.00 | 74 | 1008.3 |
| 20260505101536 | 58 | 306 | 1.7 | 4.3 | 0.00 | 0.00 | 0.00 | 73 | 1007.7 |
| 20260505100035 | 58 | 306 | 1.7 | 3.5 | 0.00 | 0.00 | 0.00 | 73 | 1007.4 |
| 20260505094530 | 58 | 306 | 2.6 | 3.5 | 0.00 | 0.00 | 0.00 | 73 | 1007.3 |
| 20260505093036 | 59 | 306 | 1.7 | 3.5 | 0.00 | 0.00 | 0.00 | 71 | 1007.2 |
| 20260505091537 | 61 | 306 | 1.7 | 4.3 | 0.00 | 0.00 | 0.00 | 69 | 1007.1 |
| 20260505090034 | 62 | 0 | 0.0 | 0.0 | 0.00 | 0.00 | 0.00 | 66 | 1007.2 |
| 20260505084532 | 61 | 0 | 0.0 | 3.5 | 0.00 | 0.00 | 0.00 | 69 | 1007.2 |
| 20260505083041 | 61 | 306 | 0.9 | 3.5 | 0.00 | 0.00 | 0.00 | 70 | 1007.1 |
| 20260505081537 | 61 | 306 | 2.6 | 3.5 | 0.00 | 0.00 | 0.00 | 68 | 1007.0 |
| 20260505080039 | 62 | 306 | 1.7 | 3.5 | 0.00 | 0.00 | 0.00 | 67 | 1007.0 |
| 20260505074533 | 64 | 306 | 2.6 | 6.1 | 0.00 | 0.00 | 0.00 | 65 | 1006.9 |
| 20260505073033 | 64 | 306 | 1.7 | 3.5 | 0.00 | 0.00 | 0.00 | 64 | 1006.6 |
| 20260505071537 | 65 | 306 | 2.6 | 4.3 | 0.00 | 0.00 | 0.00 | 61 | 1006.5 |
| 20260505070038 | 64 | 306 | 1.7 | 3.5 | 0.00 | 0.00 | 0.00 | 61 | 1006.4 |
| 20260505064550 | 64 | 306 | 1.7 | 3.5 | 0.00 | 0.00 | 0.00 | 62 | 1006.2 |
| 20260505063031 | 66 | 306 | 2.6 | 6.1 | 0.00 | 0.00 | 0.00 | 59 | 1006.1 |
| 20260505061539 | 69 | 0 | 0.0 | 0.0 | 0.00 | 0.00 | 0.00 | 54 | 1006.0 |
| 20260505060032 | 68 | 0 | 0.0 | 3.5 | 0.00 | 0.00 | 0.00 | 53 | 1006.0 |
| 20260505054531 | 68 | 293 | 3.5 | 6.1 | 0.00 | 0.00 | 0.00 | 55 | 1006.1 |
| 20260505053032 | 66 | 44 | 2.6 | 4.3 | 0.00 | 0.00 | 0.00 | 59 | 1006.1 |
| 20260505051536 | 67 | 44 | 1.7 | 3.5 | 0.00 | 0.00 | 0.00 | 56 | 1005.7 |
| 20260505041534 | 71 | 44 | 1.7 | 4.3 | 0.00 | 0.00 | 0.00 | 47 | 1005.3 |